Theta_e
354 361 366 367 367 368 367 365 364 362 362 363 363 363 363 363 363 363 364 364 363 364 362 359 359 360 360 358 357 361 361 361 360 360 358 358 359 360 360 357 353 348 352
356 360 365 366 366 366 365 365 365 364 363 363 362 362 362 362 362 362 361 362 361 360 359 358 358 359 359 357 356 360 360 361 361 360 359 357 357 359 361 360 352 350 353
353 357 361 364 365 364 365 366 365 364 363 364 362 362 362 362 361 362 361 361 361 358 357 358 357 357 357 357 356 358 360 359 359 360 358 347 348 358 358 360 354 353 354
352 352 357 364 364 365 366 366 364 364 363 363 362 362 362 362 360 359 361 362 359 356 355 356 357 358 358 358 356 357 358 357 357 358 349 344 345 358 359 359 356 355 354
348 354 357 363 365 365 366 363 360 363 363 362 361 361 361 361 361 360 360 362 359 357 356 357 357 357 357 358 358 357 357 357 355 352 340 338 336 352 359 359 358 356 356
351 355 360 362 363 364 364 362 361 363 364 363 362 362 362 361 361 360 360 361 362 359 357 357 358 358 358 357 356 356 356 356 353 342 340 338 339 345 359 360 360 359 357
347 352 356 361 361 361 362 363 361 363 363 362 362 362 362 362 361 360 360 361 361 362 362 361 360 359 359 358 358 356 356 354 345 339 338 336 331 345 360 359 358 357 358
344 342 349 359 360 360 359 361 362 362 362 361 361 361 361 362 361 361 361 360 361 361 362 362 362 360 358 358 358 357 357 354 348 340 338 335 338 345 358 360 359 358 356
338 330 335 337 339 346 356 359 356 359 360 360 360 360 360 361 361 360 360 360 360 359 361 361 360 360 359 358 357 357 357 354 343 338 337 331 341 348 355 361 360 357 358
337 333 330 332 334 339 343 353 354 356 357 353 355 358 359 360 361 361 359 359 360 360 360 360 360 359 359 357 357 356 356 353 342 338 338 336 347 351 353 360 360 358 357
336 338 333 339 337 337 332 333 343 343 343 339 339 342 348 349 348 351 354 357 358 359 358 359 359 358 358 358 357 357 356 348 342 342 342 347 350 351 354 357 360 359 357
335 335 332 338 338 332 334 330 329 339 336 333 333 333 333 336 341 345 348 355 355 355 355 355 356 357 356 351 351 356 350 347 343 344 343 349 351 353 354 354 361 360 358
330 332 335 337 335 335 329 329 330 338 336 333 332 329 331 340 337 336 339 339 336 340 333 336 346 344 345 347 347 345 347 347 345 344 345 350 351 353 355 354 357 360 358
326 329 330 334 338 337 338 334 336 335 333 333 332 329 330 334 335 333 339 341 343 339 332 340 342 342 340 343 343 342 341 341 343 342 341 349 349 351 353 354 355 360 357
331 333 334 337 339 337 332 332 332 332 331 333 331 332 331 334 334 339 338 337 338 340 339 339 338 337 336 340 342 342 340 339 337 339 338 347 348 349 351 353 353 358 358
323 323 324 324 325 327 338 336 336 334 334 334 334 336 336 336 337 336 335 336 335 335 336 337 335 337 336 337 337 338 339 336 335 333 336 336 348 350 352 355 356 354 360
321 322 321 321 321 320 319 316 319 321 322 324 325 324 324 325 327 330 331 332 335 337 334 334 333 335 334 335 335 337 336 335 336 338 337 335 336 346 350 353 357 356 356
321 324 324 325 322 319 317 316 318 319 318 319 322 322 323 324 323 324 324 324 326 330 335 331 332 332 332 332 331 332 332 332 335 338 337 335 334 336 342 352 354 355 357
325 326 325 323 319 318 317 317 317 319 317 317 318 321 320 321 321 319 318 319 319 322 325 328 331 331 329 330 331 333 331 331 336 337 336 332 330 333 338 345 351 352 353
323 322 321 324 319 319 318 316 317 318 317 317 318 316 314 315 314 312 312 313 315 316 318 322 322 323 325 326 330 331 331 331 331 332 334 335 335 336 337 338 339 341 348
323 320 320 321 320 320 318 316 318 315 314 316 316 313 311 310 311 309 309 310 311 312 313 318 320 319 319 322 322 321 324 327 328 329 330 330 331 334 336 337 336 336 338
322 321 320 320 318 317 317 317 316 315 313 313 312 310 310 309 309 309 308 309 310 311 312 314 317 316 317 319 316 315 314 316 321 326 327 328 327 331 333 334 334 334 335
318 318 316 316 316 316 317 316 314 314 312 309 308 308 308 308 308 308 309 309 310 311 312 314 316 317 313 315 319 315 313 309 313 318 321 324 324 325 327 329 331 333 333
314 315 315 316 316 316 314 311 308 307 304 306 305 306 306 306 306 306 308 308 309 310 310 313 317 318 318 314 314 318 316 316 314 312 316 319 323 324 323 324 326 327 329
314 314 314 315 314 314 311 309 307 305 305 304 304 303 303 303 304 306 306 307 308 308 308 310 311 312 314 316 316 318 318 318 319 316 308 312 318 322 322 322 326 330 329
313 313 312 312 312 311 310 308 304 303 302 302 304 301 302 301 301 304 304 306 307 306 306 308 308 308 308 308 309 312 311 312 313 314 314 311 313 316 317 318 320 323 328
Wind_Speed
5 6 9 10 9 9 9 9 10 11 11 13 14 15 15 14 13 14 15 15 15 14 14 15 14 12 10 8 8 9 10 11 13 17 19 18 18 18 18 17 17 11 15
10 7 11 11 11 9 8 8 9 9 9 10 12 12 12 12 12 12 11 11 11 11 12 13 13 11 9 7 7 8 9 11 11 14 17 18 18 18 17 18 19 13 14
9 6 9 12 12 11 10 9 8 9 9 9 10 10 10 10 11 10 10 9 8 9 9 9 9 7 6 6 7 8 8 9 10 11 13 6 6 15 16 18 18 19 17
9 6 5 13 13 12 11 9 9 9 8 8 8 8 8 8 9 9 8 8 7 7 7 6 6 7 6 7 7 8 8 8 10 10 5 5 8 13 13 14 17 17 17
8 6 8 12 12 12 11 10 9 9 8 7 7 6 7 7 7 8 8 7 8 8 7 7 7 6 6 6 6 7 7 8 7 6 5 5 5 9 14 16 16 18 18
5 5 12 14 13 12 10 8 7 10 10 10 10 11 11 11 11 10 10 10 10 10 10 10 10 9 8 7 7 6 6 6 6 4 4 5 4 6 14 17 19 19 19
4 7 8 13 13 12 10 6 7 9 11 11 12 13 13 12 11 10 11 12 12 11 11 11 10 11 11 10 10 9 9 8 5 4 5 5 5 6 10 19 18 19 19
3 4 8 14 14 10 9 7 6 3 2 5 5 7 8 9 9 10 11 11 11 11 11 11 11 11 11 11 12 11 10 11 7 6 6 5 8 9 11 18 18 19 18
7 10 8 10 14 17 9 8 6 2 1 4 6 7 8 8 10 10 10 11 11 11 12 13 12 12 11 11 11 10 11 13 7 4 7 4 12 9 11 16 20 20 21
5 4 5 10 5 7 6 7 3 4 8 13 9 7 7 8 8 10 10 11 14 15 15 14 13 13 13 12 12 12 12 15 7 6 5 6 13 14 12 13 19 20 20
6 11 8 9 1 6 6 3 7 7 7 10 10 11 9 4 6 6 11 13 15 15 16 17 18 17 16 15 15 15 15 6 5 5 5 15 17 19 17 15 18 20 20
8 9 7 8 1 5 4 10 7 4 2 6 5 5 4 4 5 5 10 16 18 17 18 18 18 19 16 7 6 14 7 8 6 8 7 19 21 22 20 16 18 20 21
4 4 5 8 3 2 7 5 5 5 4 4 4 5 2 2 3 3 3 2 3 6 3 5 9 9 9 7 8 8 9 9 7 7 12 21 23 22 21 20 18 22 22
6 4 6 6 6 6 3 2 6 6 6 5 4 4 4 3 3 5 3 4 5 2 3 4 4 10 8 8 10 10 10 9 7 7 10 21 21 22 22 21 20 23 24
4 4 3 3 4 3 3 4 5 5 6 8 6 5 3 3 3 3 4 2 2 2 3 4 2 7 5 5 6 8 10 11 10 6 6 19 22 22 23 23 23 22 25
6 5 6 8 5 6 5 3 3 4 7 6 7 7 11 8 7 4 4 3 2 2 3 4 5 5 5 5 4 5 8 6 6 6 4 6 18 19 20 21 24 24 26
3 4 7 7 5 6 5 3 3 5 5 5 6 13 14 11 10 9 7 7 7 4 6 4 6 5 5 3 6 6 5 5 7 7 5 6 7 11 14 17 17 21 25
4 7 6 6 7 7 5 3 4 5 4 5 5 7 11 11 12 8 8 8 10 8 5 3 3 3 4 4 4 5 4 5 8 7 7 8 6 5 8 16 18 19 22
5 5 4 6 6 5 7 5 5 5 5 4 4 7 10 11 11 8 6 6 9 8 7 7 4 3 3 5 4 6 6 5 7 6 10 8 7 6 5 7 11 16 17
4 4 5 5 5 5 3 4 4 5 5 5 6 9 12 9 12 9 8 9 7 7 7 8 6 3 4 5 6 6 6 5 5 6 8 6 6 6 6 6 6 6 16
4 4 6 7 5 5 4 3 4 4 4 7 7 10 10 10 11 9 7 9 9 7 8 8 6 5 4 2 2 4 4 6 7 6 6 6 6 5 7 6 4 4 4
4 8 7 7 6 5 3 3 3 3 3 3 4 5 7 9 10 9 10 10 10 9 8 8 7 4 4 1 3 1 4 5 3 3 4 4 5 3 4 6 5 5 5
13 9 7 6 7 7 7 4 4 4 4 6 7 6 6 10 11 10 11 10 10 9 7 10 8 6 4 3 5 3 2 3 2 3 2 1 1 0 2 4 3 4 5
9 7 7 7 8 8 7 5 6 3 3 4 4 5 7 10 12 12 12 12 11 9 10 8 9 6 4 5 3 2 3 3 2 4 3 3 3 5 5 3 4 2 3
8 7 6 7 7 6 6 6 4 3 2 3 3 7 6 7 9 13 13 12 12 9 11 11 10 9 5 3 3 3 2 1 3 3 4 4 3 3 4 4 5 3 3
6 7 6 7 7 6 6 6 5 4 3 3 5 5 5 5 5 10 14 12 11 11 11 9 10 10 8 6 5 5 4 3 2 2 3 3 1 2 4 4 5 4 2
Wind_Direction
110 116 104 96 92 93 92 92 83 73 71 83 93 98 101 104 107 114 121 129 136 145 151 153 152 150 141 136 130 137 141 142 139 134 137 142 145 149 152 149 146 140 138
110 106 103 97 89 78 89 84 78 83 83 85 91 93 97 102 107 108 112 118 128 139 143 149 153 150 146 139 138 153 157 152 149 147 145 151 155 158 161 163 148 144 138
91 88 89 89 87 80 74 72 68 70 72 73 80 81 86 91 96 100 102 105 115 129 138 145 145 141 140 140 140 150 157 159 157 158 152 150 159 167 165 163 150 149 149
98 69 92 106 102 98 101 99 93 77 79 84 95 102 102 103 105 109 107 110 118 131 139 147 152 157 160 160 154 147 157 164 166 167 156 163 183 183 168 157 158 159 157
62 58 63 61 71 77 91 100 107 124 112 119 125 126 128 129 134 140 145 150 156 160 163 168 170 171 172 169 163 165 165 170 173 177 182 191 206 191 184 175 173 171 167
83 100 96 83 62 61 61 82 111 136 146 162 167 169 173 172 170 172 174 178 183 181 182 183 185 184 186 186 187 190 197 200 195 204 221 221 216 248 223 193 181 183 178
136 115 96 95 92 89 81 84 130 150 168 182 185 185 188 189 189 188 192 194 196 196 198 197 195 196 197 198 200 200 207 216 212 226 240 246 219 238 212 203 193 190 188
190 120 84 77 65 62 86 67 39 15 237 224 219 214 204 201 207 202 203 210 212 212 213 212 211 210 211 212 209 206 209 217 227 226 238 249 245 224 222 205 201 191 197
323 36 46 58 65 39 22 54 34 46 201 222 221 229 228 216 213 220 222 215 220 222 223 222 224 225 223 230 231 222 217 221 221 229 251 243 256 224 232 215 205 199 195
357 105 34 49 48 78 29 76 322 4 6 354 337 306 287 264 252 243 228 227 221 224 224 223 226 228 227 226 231 235 234 236 234 220 238 248 259 259 236 223 212 207 207
349 2 30 43 125 84 92 44 23 350 5 324 322 326 313 321 308 296 282 260 247 239 237 231 226 222 221 223 225 226 235 236 231 228 234 244 247 255 252 232 215 207 205
14 2 9 8 70 346 24 340 22 310 358 298 321 292 318 352 327 323 282 267 256 254 249 242 234 230 227 225 232 237 230 229 215 232 235 241 240 244 251 244 220 211 210
21 7 351 355 6 47 33 352 327 338 304 295 277 236 239 285 288 287 271 297 221 242 240 301 274 245 225 213 225 223 229 226 222 231 239 241 243 246 245 243 231 218 212
359 357 347 333 328 350 8 297 294 302 304 295 319 330 320 313 325 296 335 340 313 355 299 278 312 270 243 231 226 226 225 230 229 227 236 241 246 244 246 242 234 219 216
358 328 311 234 266 306 353 325 301 293 290 302 307 278 229 262 278 275 258 274 331 311 314 25 345 274 268 251 230 225 234 235 241 242 239 240 240 240 242 245 239 225 217
61 81 79 53 48 111 186 207 280 310 324 320 323 334 352 356 338 329 326 281 241 248 236 220 236 245 248 246 248 240 237 236 259 268 248 243 251 246 242 243 242 232 221
79 72 63 80 61 57 42 18 9 3 8 5 18 11 12 10 2 358 350 343 331 280 277 233 218 250 268 246 246 235 226 225 239 223 244 277 256 256 262 264 254 235 228
113 75 64 60 51 49 55 60 26 13 17 2 8 15 17 17 12 358 358 358 337 326 299 271 291 284 251 233 241 246 236 217 248 253 262 243 238 255 255 255 258 249 230
123 116 89 73 65 59 35 21 16 35 26 7 27 25 21 16 7 12 354 346 339 337 333 322 309 261 295 292 273 257 241 211 231 229 237 242 248 238 246 249 258 248 238
143 120 106 77 62 67 30 33 22 14 8 8 26 31 21 15 7 6 348 345 341 332 331 331 310 284 254 272 292 286 268 242 219 241 250 249 243 235 241 238 244 244 235
163 120 60 72 31 50 13 359 3 1 357 19 30 27 20 10 9 8 356 346 340 331 317 316 303 312 302 266 299 311 274 248 241 238 224 227 239 243 241 235 232 220 246
132 69 63 59 47 31 22 356 2 339 20 357 12 14 14 6 1 0 354 353 343 332 328 326 310 293 276 320 272 253 302 335 324 236 235 252 265 249 250 239 230 193 191
76 83 76 64 54 45 34 11 359 9 7 5 359 0 359 8 4 359 348 345 337 331 327 325 313 304 275 279 227 210 259 241 325 307 286 233 299 238 263 300 281 202 189
79 76 70 66 62 55 27 35 40 42 26 332 334 327 344 355 1 1 354 348 341 342 333 325 323 297 267 283 303 232 253 246 237 294 326 303 29 22 16 355 308 305 228
77 70 65 70 69 60 47 47 48 41 4 323 332 341 340 334 351 356 354 352 347 349 344 353 343 1 350 353 3 332 303 298 252 257 293 315 34 19 17 358 311 259 179
61 67 62 63 56 56 51 40 45 42 356 346 354 354 336 324 340 356 353 350 352 352 352 352 351 358 12 13 13 13 14 348 354 352 293 288 265 81 29 19 11 357 18